Location: American Medical Response
(33.3472°N, 96.5511°W)
Time: 11:32:01
(UTC+00:00)

Cosmos 1805 Rocket - Pass Details

Date: 09 July 2022
Orbit: 605 x 629 km, 82.5° (Epoch: 09 August)

Event Time Altitude Azimuth Distance (km) Brightness Sun altitude
Exits shadow 08:49:16 60° 101° (ESE) 711 3.8 -25.4°
Maximum altitude 08:49:22 60° 94° (E) 710 3.9 -25.3°
Drops below altitude 10° 08:53:41 10° 15° (NNE) 1,981 7.0 -24.8°
Sets 08:55:55 0° 11° (NNE) 2,886 8.0 -24.5°
